This demonstration page uses our WeatherBlox Daily Observations layout. Learn more.

Left ArrowRight Arrow

44.31136, -96.79839

Hourly Observations for July 27, 2015

Temp ( °F °C ) Dew Point ( °F °C ) Humidity (%) Winds ( mph kmh ) Pressure ( in mb ) Visibility ( mi km ) Precip ( " mm )
12:15 am 00:15 Clear 70 21 64 18 83 83 ESE 6 9 29.88 1012 10 16 0.00 0.00
12:35 am 00:35 Clear 70 21 64 18 83 83 ESE 6 9 29.88 1012 10 16 0.00 0.00
12:55 am 00:55 Clear 70 21 64 18 83 83 ESE 6 9 29.88 1012 10 16 0.00 0.00
1:15 am 01:15 Clear 70 21 64 18 83 83 ESE 6 9 29.88 1012 10 16 0.00 0.00
1:35 am 01:35 Clear 70 21 64 18 83 83 ESE 7 11 29.88 1012 10 16 0.00 0.00
1:55 am 01:55 Clear 70 21 64 18 83 83 ESE 7 11 29.88 1012 10 16 0.00 0.00
2:15 am 02:15 Clear 70 21 64 18 83 83 ESE 7 11 29.88 1012 10 16 0.00 0.00
2:35 am 02:35 Clear 70 21 64 18 83 83 E 7 11 29.88 1012 10 16 0.00 0.00
2:55 am 02:55 Clear 70 21 64 18 83 83 ESE 7 11 29.88 1012 10 16 0.00 0.00
3:15 am 03:15 Clear 70 21 64 18 83 83 SE 6 9 29.88 1012 10 16 0.00 0.00
3:35 am 03:35 Mostly Cloudy 70 21 64 18 83 83 SE 6 9 29.88 1012 10 16 0.00 0.00
3:55 am 03:55 Partly Cloudy 68 20 64 18 88 88 ESE 8 13 29.85 1011 10 16 0.00 0.00
4:15 am 04:15 Clear 70 21 64 18 83 83 ESE 6 9 29.85 1011 10 16 0.00 0.00
4:35 am 04:35 Mostly Cloudy 70 21 64 18 83 83 ENE 6 9 29.85 1011 10 16 0.00 0.00
4:55 am 04:55 Mostly Clear 70 21 64 18 83 83 ESE 7 11 29.85 1011 10 16 0.00 0.00
5:15 am 05:15 Partly Cloudy 70 21 64 18 83 83 ESE 7 11 29.85 1011 10 16 0.00 0.00
5:35 am 05:35 Mostly Cloudy 70 21 66 19 88 88 ESE 8 13 29.88 1012 10 16 0.00 0.00
5:55 am 05:55 Mostly Cloudy 70 21 66 19 88 88 E 7 11 29.85 1011 10 16 0.00 0.00
6:15 am 06:15 Mostly Sunny 72 22 66 19 83 83 E 3 6 29.88 1012 10 16 0.00 0.00
6:35 am 06:35 Mostly Sunny 72 22 66 19 83 83 SE 9 15 29.88 1012 10 16 0.00 0.00
6:55 am 06:55 Mostly Cloudy 72 22 66 19 83 83 SSE 9 15 29.88 1012 10 16 0.00 0.00
7:15 am 07:15 Partly Cloudy 72 22 66 19 83 83 ESE 6 9 29.88 1012 9 14 0.00 0.00
7:35 am 07:35 Partly Cloudy 72 22 68 20 88 88 E 3 6 29.88 1012 10 16 0.00 0.00
7:55 am 07:55 Mostly Cloudy 72 22 68 20 88 88 E 6 9 29.88 1012 10 16 0.00 0.00
8:15 am 08:15 Mostly Sunny 73 23 68 20 83 83 Calm 29.88 1012 10 16 0.00 0.00
8:35 am 08:35 Mostly Cloudy 73 23 70 21 89 89 NNW 8 13 29.88 1012 10 16 0.00 0.00
8:55 am 08:55 Mostly Cloudy 73 23 70 21 89 89 ESE 8 13 29.85 1011 10 16 0.00 0.00
9:15 am 09:15 Sunny 75 24 72 22 89 89 SE 13 20 29.83 1010 10 16 0.00 0.00
9:35 am 09:35 Sunny 79 26 73 23 84 84 SSE 15 24 29.83 1010 10 16 0.00 0.00
9:55 am 09:55 Sunny 79 26 73 23 84 84 SSE 14 22 29.83 1010 10 16 0.00 0.00
10:15 am 10:15 Sunny 81 27 73 23 79 79 SE 15 24 29.80 1009 10 16 0.00 0.00
10:35 am 10:35 Sunny 81 27 73 23 79 79 SSE 13 20 29.80 1009 10 16 0.00 0.00
10:55 am 10:55 Sunny 81 27 73 23 79 79 SSE 14 22 29.80 1009 10 16 0.00 0.00
11:15 am 11:15 Sunny 81 27 73 23 79 79 SSE 14 22 29.80 1009 10 16 0.00 0.00
11:35 am 11:35 Sunny 82 28 73 23 74 74 SSE 13 20 29.80 1009 10 16 0.00 0.00
11:55 am 11:55 Sunny 82 28 73 23 74 74 SSE 17 28 29.80 1009 10 16 0.00 0.00
12:15 pm 12:15 Sunny 84 29 70 21 62 62 SE 16 26 29.77 1008 10 16 0.00 0.00
12:35 pm 12:35 Sunny 84 29 70 21 62 62 SSE 17 28 29.77 1008 10 16 0.00 0.00
12:55 pm 12:55 Sunny 84 29 72 22 66 66 SSE 17 28 29.77 1008 10 16 0.00 0.00
1:15 pm 13:15 Mostly Sunny 86 30 72 22 62 62 SSE 16 26 29.77 1008 10 16 0.00 0.00
1:35 pm 13:35 Mostly Sunny 86 30 70 21 59 59 SSE 14 22 29.77 1008 10 16 0.00 0.00
1:55 pm 13:55 Sunny 86 30 68 20 55 55 S 17 28 29.77 1008 10 16 0.00 0.00
2:15 pm 14:15 Sunny 86 30 68 20 55 55 S 15 24 29.77 1008 10 16 0.00 0.00
2:35 pm 14:35 Mostly Sunny 86 30 70 21 59 59 S 21 33 29.77 1008 10 16 0.00 0.00
2:55 pm 14:55 Sunny 86 30 68 20 55 55 SSE 17 28 29.77 1008 10 16 0.00 0.00
3:15 pm 15:15 Sunny 86 30 66 19 52 52 SSE 18 30 29.77 1008 10 16 0.00 0.00
3:35 pm 15:35 Sunny 84 29 66 19 55 55 S 16 26 29.77 1008 10 16 0.00 0.00
3:55 pm 15:55 Sunny 84 29 66 19 55 55 SSE 15 24 29.77 1008 10 16 0.00 0.00
4:15 pm 16:15 Sunny 84 29 66 19 55 55 SE 15 24 29.74 1007 10 16 0.00 0.00
4:35 pm 16:35 Sunny 84 29 66 19 55 55 SSE 13 20 29.74 1007 10 16 0.00 0.00
4:55 pm 16:55 Sunny 84 29 66 19 55 55 SSE 12 19 29.71 1006 10 16 0.00 0.00
5:15 pm 17:15 Sunny 84 29 70 21 62 62 SSE 16 26 29.71 1006 10 16 0.00 0.00
5:35 pm 17:35 Sunny 84 29 70 21 62 62 SE 15 24 29.71 1006 10 16 0.00 0.00
5:55 pm 17:55 Sunny 84 29 70 21 62 62 SE 16 26 29.71 1006 10 16 0.00 0.00
6:15 pm 18:15 Sunny 84 29 70 21 62 62 SE 17 28 29.71 1006 10 16 0.00 0.00
6:35 pm 18:35 Sunny 82 28 70 21 66 66 SSE 15 24 29.71 1006 10 16 0.00 0.00
6:55 pm 18:55 Sunny 82 28 70 21 66 66 SE 14 22 29.71 1006 10 16 0.00 0.00
7:15 pm 19:15 Sunny 82 28 70 21 66 66 SSE 15 24 29.68 1005 10 16 0.00 0.00
7:35 pm 19:35 Sunny 82 28 70 21 66 66 SSE 14 22 29.68 1005 10 16 0.00 0.00
7:55 pm 19:55 Sunny 81 27 70 21 70 70 SE 13 20 29.71 1006 10 16 0.00 0.00
8:15 pm 20:15 Sunny 81 27 72 22 74 74 SE 13 20 29.71 1006 10 16 0.00 0.00
8:35 pm 20:35 Sunny 81 27 72 22 74 74 SE 13 20 29.71 1006 10 16 0.00 0.00
8:55 pm 20:55 Sunny 79 26 72 22 79 79 SE 13 20 29.71 1006 10 16 0.00 0.00
9:15 pm 21:15 Clear 79 26 72 22 79 79 SE 10 17 29.71 1006 10 16 0.00 0.00
9:35 pm 21:35 Clear 77 25 72 22 83 83 SE 13 20 29.74 1007 10 16 0.00 0.00
9:55 pm 21:55 Clear 77 25 72 22 83 83 SE 12 19 29.74 1007 10 16 0.00 0.00
10:15 pm 22:15 Clear 77 25 72 22 83 83 SE 10 17 29.77 1008 10 16 0.00 0.00
10:35 pm 22:35 Clear 77 25 72 22 83 83 SSE 10 17 29.77 1008 10 16 0.00 0.00
10:55 pm 22:55 Mostly Clear 75 24 72 22 89 89 SSE 14 22 29.74 1007 10 16 0.00 0.00
11:15 pm 23:15 Partly Cloudy 75 24 72 22 89 89 SSE 14 22 29.74 1007 10 16 0.00 0.00
11:35 pm 23:35 Mostly Cloudy 75 24 72 22 89 89 SSE 17 28 29.71 1006 10 16 0.00 0.00
11:55 pm 23:55 Mostly Cloudy 75 24 70 21 83 83 SE 15 24 29.71 1006 10 16 0.00 0.00

Powered by AerisWeather